This is the latest recevied weather packets stored in our database for station/object KE5WTH-14. If no packets are shown the sender has not sent any weather packets the latest 1 day(s).
| Time | Temp. | Humidity | Pressure | Rain* | Wind** | Luminosity | Snow |
|---|---|---|---|---|---|---|---|
| 1777976244 | 22.22° C | 83% | 1003.6 hPa | 0 mm | 4.02 m/s, 182° | 0 W/m² | - |
| 1777976184 | 22.22° C | 83% | 1003.5 hPa | 0 mm | 4.02 m/s, 173° | 0 W/m² | - |
| 1777976126 | 22.22° C | 83% | 1003.6 hPa | 0 mm | 4.02 m/s, 192° | 0 W/m² | - |
| 1777976065 | 22.22° C | 83% | 1003.6 hPa | 0 mm | 3.13 m/s, 226° | 0 W/m² | - |
| 1777976004 | 22.22° C | 83% | 1003.5 hPa | 0 mm | 3.13 m/s, 199° | 0 W/m² | - |
| 1777975945 | 22.22° C | 83% | 1003.5 hPa | 0 mm | 4.02 m/s, 180° | 0 W/m² | - |
| 1777975884 | 22.22° C | 83% | 1003.6 hPa | 0 mm | 3.58 m/s, 212° | 0 W/m² | - |
| 1777975824 | 22.22° C | 83% | 1003.6 hPa | 0 mm | 4.02 m/s, 182° | 0 W/m² | - |
| 1777975764 | 22.22° C | 83% | 1003.6 hPa | 0 mm | 6.26 m/s, 224° | 0 W/m² | - |
| 1777975705 | 22.22° C | 83% | 1003.5 hPa | 0 mm | 6.26 m/s, 179° | 0 W/m² | - |
| 1777975646 | 22.22° C | 83% | 1003.8 hPa | 0 mm | 5.36 m/s, 178° | 0 W/m² | - |
| 1777975581 | 22.22° C | 83% | 1003.5 hPa | 0 mm | 4.92 m/s, 197° | 0 W/m² | - |
| 1777975518 | 22.22° C | 83% | 1003.4 hPa | 0 mm | 4.47 m/s, 182° | 0 W/m² | - |
| 1777975459 | 22.22° C | 83% | 1003.3 hPa | 0 mm | 4.02 m/s, 185° | 0 W/m² | - |
| 1777975398 | 22.22° C | 83% | 1003.5 hPa | 0 mm | 4.47 m/s, 206° | 0 W/m² | - |
| 1777975335 | 22.22° C | 83% | 1003.5 hPa | 0 mm | 4.92 m/s, 155° | 0 W/m² | - |
| 1777975275 | 22.22° C | 83% | 1003.4 hPa | 0 mm | 4.47 m/s, 199° | 0 W/m² | - |
| 1777975213 | 22.22° C | 83% | 1003.5 hPa | 0 mm | 4.47 m/s, 176° | 0 W/m² | - |
| 1777975153 | 22.22° C | 83% | 1003.4 hPa | 0 mm | 3.58 m/s, 140° | 0 W/m² | - |
| 1777975090 | 22.22° C | 83% | 1003.4 hPa | 0 mm | 3.13 m/s, 172° | 0 W/m² | - |
| 1777975031 | 22.22° C | 83% | 1003.4 hPa | 0 mm | 3.58 m/s, 145° | 0 W/m² | - |
| 1777974971 | 22.22° C | 83% | 1003.6 hPa | 0 mm | 4.02 m/s, 175° | 0 W/m² | - |
| 1777974910 | 22.22° C | 83% | 1003.6 hPa | 0 mm | 4.47 m/s, 186° | 0 W/m² | - |
| 1777974848 | 22.22° C | 83% | 1003.6 hPa | 0 mm | 4.92 m/s, 192° | 0 W/m² | - |
| 1777974787 | 22.22° C | 83% | 1003.5 hPa | 0 mm | 4.47 m/s, 192° | 0 W/m² | - |
* Rain latest hour (hover to see other rain measurements)
** Current wind speed in m/s (hover to see current wind gust speed)